Theta_e
320 311 307 306 300 297 293 298 299 301 301 303 306 306 305 314 316 310 327 333 341 344 348 349 350 353 353 352 351 350 349 349 347 346 345 345 343 342 342 342 344 342 340 340 339 342 343 342 342
318 311 306 302 295 291 293 298 301 303 304 307 308 309 309 314 325 325 325 341 342 344 347 349 347 352 352 351 350 349 349 348 347 345 344 343 342 341 341 340 342 341 338 338 339 339 340 339 339
315 311 300 298 294 291 293 298 299 302 307 308 308 311 316 319 325 327 330 341 343 343 347 347 346 351 351 350 349 348 348 347 347 344 341 339 338 339 340 341 341 340 337 338 338 337 337 337 336
304 303 299 293 292 297 298 295 299 299 302 305 307 306 323 329 328 331 333 341 341 342 346 343 347 350 350 349 349 348 347 347 346 344 342 340 339 340 341 342 341 339 337 336 335 335 335 335 334
304 300 293 292 294 296 294 296 297 297 297 300 303 301 320 329 333 332 329 341 339 340 345 346 345 348 348 348 348 347 346 346 345 344 343 343 342 342 341 341 341 340 338 338 337 337 336 335 334
299 297 291 291 295 292 294 296 297 296 297 300 304 307 322 332 332 331 330 334 340 342 345 346 339 341 344 346 346 345 345 345 344 344 343 342 342 342 342 341 341 339 338 336 335 335 334 333 332
299 295 291 291 292 291 294 297 295 295 297 299 304 310 319 327 331 334 330 332 342 343 343 344 344 341 336 339 340 341 342 343 343 343 342 340 339 340 340 340 340 339 337 336 336 335 335 334 333
301 298 297 293 292 290 297 297 297 297 297 305 313 308 312 325 330 331 330 334 340 341 343 341 341 341 342 341 334 334 336 338 339 338 336 334 334 335 335 334 337 339 338 337 336 336 335 334 332
308 298 295 294 295 295 302 299 303 300 298 299 301 310 323 328 328 328 328 333 337 338 341 342 340 339 342 342 336 332 332 333 333 332 329 329 334 334 332 331 334 337 337 337 336 335 334 332 330
301 296 295 302 300 297 302 302 302 298 296 297 299 302 303 310 319 323 324 327 331 332 336 341 341 340 340 341 339 339 338 338 336 335 332 334 332 332 334 327 329 332 332 335 336 334 331 326 321
299 296 301 303 303 302 301 300 302 298 295 297 296 297 298 298 298 298 301 302 311 328 333 337 340 340 340 340 337 338 335 336 336 334 333 332 331 329 329 327 328 327 324 329 329 326 322 318 313
299 304 304 304 302 299 298 302 297 298 298 303 299 299 298 297 297 297 299 299 302 304 305 333 338 339 339 339 338 337 337 335 335 335 333 331 326 327 328 328 327 326 326 325 324 322 320 312 309
298 302 304 304 302 300 303 300 300 299 300 302 300 298 297 297 298 299 299 301 301 301 304 306 311 334 335 335 337 338 337 337 335 335 335 331 327 326 329 329 328 326 325 324 323 322 315 310 307
293 295 296 300 297 297 299 300 301 302 299 299 298 297 297 297 296 297 298 299 299 301 302 304 307 308 331 334 334 334 336 336 335 333 333 332 329 326 326 328 328 327 326 324 326 320 313 309 305
294 291 293 293 296 294 298 290 290 297 298 296 296 295 295 294 295 295 296 297 298 299 301 302 304 306 306 322 332 332 332 334 333 334 332 333 333 329 326 324 326 327 329 327 325 319 311 306 305
288 289 285 289 290 293 293 284 292 295 294 292 292 292 292 293 293 294 295 295 296 297 299 301 303 303 304 307 312 330 331 331 332 334 331 332 333 331 328 324 323 324 324 322 316 311 307 305 305
283 278 283 285 286 286 290 285 290 292 291 289 289 289 290 290 292 293 294 294 295 295 297 299 301 300 302 306 309 311 330 331 331 333 333 331 332 332 329 326 324 321 320 318 315 309 308 306 303
277 277 280 278 281 283 287 285 287 289 289 287 288 288 288 288 289 292 293 294 294 294 295 296 299 300 301 302 304 308 310 323 331 332 333 333 331 330 330 327 327 323 319 315 312 311 309 305 303
280 277 274 278 283 281 285 283 285 286 286 285 286 286 287 287 290 291 292 293 293 293 293 294 295 298 299 299 299 302 306 312 319 331 332 333 332 330 329 328 326 322 320 317 314 311 307 303 302
278 275 274 278 282 281 284 282 284 285 284 284 285 285 285 286 287 289 290 290 290 291 292 293 293 295 298 299 299 301 303 310 315 327 331 331 331 331 329 328 325 321 319 315 313 309 303 302 302
276 274 274 275 280 283 283 280 281 283 283 284 284 285 285 285 285 286 287 288 288 288 289 291 292 294 295 297 299 299 300 302 306 307 312 329 330 330 330 328 325 320 319 315 313 308 305 301 300
274 277 277 277 274 268 281 275 281 280 280 281 282 281 283 284 285 286 286 287 287 287 288 289 291 292 294 295 296 296 295 295 298 303 308 312 329 328 328 329 325 321 318 316 312 308 306 302 301
276 279 277 277 275 273 276 269 274 280 277 278 280 281 281 283 284 285 285 286 287 287 287 288 289 290 291 293 294 295 295 296 298 300 303 307 317 323 327 327 325 321 317 316 314 309 306 304 303
280 278 280 281 275 264 271 269 269 274 275 277 279 280 281 281 283 285 285 286 286 287 287 287 288 288 289 291 292 293 293 295 295 296 298 301 306 316 317 317 316 318 317 315 312 311 308 306 303
277 272 258 260 260 263 273 267 269 276 277 278 277 278 279 281 281 282 283 284 285 285 286 287 287 287 288 289 290 292 292 294 294 295 295 297 302 307 314 313 313 313 311 312 311 309 308 306 303
274 271 260 254 260 264 272 263 271 279 280 278 278 279 279 279 281 281 282 283 283 284 285 286 286 286 287 288 288 290 292 292 294 295 295 296 298 302 307 310 311 311 311 311 309 308 307 306 305
272 267 274 260 255 259 268 273 277 279 278 276 276 277 278 279 280 280 281 282 282 283 284 284 285 286 286 287 288 288 290 291 291 293 294 295 296 298 300 305 307 307 305 305 304 304 303 303 302
274 275 264 260 253 251 263 266 266 275 274 275 275 275 277 279 280 280 280 281 282 283 283 284 284 285 286 287 287 288 288 290 290 292 292 293 294 295 297 300 304 304 303 302 302 302 302 301 300
271 270 269 264 263 255 255 263 269 273 274 273 274 276 277 278 279 279 280 281 281 282 282 283 283 284 285 286 287 287 287 288 289 289 291 292 293 293 294 296 299 300 299 299 300 301 300 299 299
274 270 269 258 259 263 263 262 278 275 276 276 276 277 278 279 279 279 280 280 281 281 281 282 283 283 284 285 286 286 287 287 287 287 288 290 291 292 292 293 295 298 297 298 298 297 297 298 296
Wind_Speed
11 11 1 4 5 5 4 4 3 6 6 3 2 2 3 3 3 4 2 10 19 16 15 14 16 18 17 17 17 16 15 15 15 15 14 14 13 13 13 13 11 12 13 14 13 13 14 13 13
6 7 4 2 5 1 6 2 7 4 3 4 6 4 6 3 3 3 5 14 20 16 14 13 14 17 18 17 16 16 15 14 15 15 13 13 12 13 13 13 10 10 12 12 12 12 12 12 12
5 5 3 4 3 4 3 1 4 2 4 4 4 4 5 6 3 5 5 18 17 15 13 12 14 17 18 17 17 15 15 14 15 15 15 14 13 12 13 11 11 12 12 12 12 11 11 11 10
2 4 4 4 4 6 4 4 4 5 7 11 1 5 7 5 4 1 10 18 16 14 12 12 15 17 17 16 16 15 15 14 14 14 14 14 14 13 12 13 12 12 12 12 11 11 10 10 9
3 2 2 2 4 2 5 5 8 9 5 9 7 7 6 8 8 6 8 13 15 13 12 11 12 16 16 16 15 15 14 14 13 13 14 14 13 12 12 12 12 11 12 12 11 10 10 9 8
5 1 3 2 1 7 7 9 7 8 7 9 8 5 6 8 14 8 6 9 12 12 12 11 11 12 14 15 14 14 13 13 13 13 13 13 13 12 11 11 11 11 11 10 10 9 8 7 6
3 4 1 4 4 8 9 11 10 6 12 11 6 5 4 11 12 12 6 8 13 12 11 9 9 10 9 13 11 11 13 10 11 11 13 13 10 10 11 10 10 11 11 11 10 9 8 6 5
2 3 5 8 4 3 10 8 6 13 10 9 6 7 4 5 9 10 8 10 11 9 11 9 6 7 7 9 13 8 11 9 9 9 8 11 10 9 9 9 10 11 10 10 9 8 6 5 3
2 4 3 4 7 8 11 12 12 3 9 8 8 7 0 2 8 10 8 9 9 7 6 7 7 5 6 7 8 10 12 11 9 8 8 8 4 5 7 7 10 10 10 9 8 6 5 4 2
4 4 4 5 10 4 10 17 13 11 15 13 21 21 25 21 17 11 8 9 8 2 4 8 6 8 7 6 7 5 6 7 6 5 6 5 5 5 6 6 9 10 9 9 7 6 5 2 1
2 4 6 3 15 12 13 16 14 14 17 14 18 19 21 24 21 23 23 20 21 15 5 6 6 5 8 6 5 3 2 3 5 7 6 5 5 5 4 3 3 4 6 3 4 3 1 2 1
6 6 7 5 8 7 9 5 7 21 11 12 19 19 24 25 20 22 22 21 22 17 23 11 5 8 7 5 7 7 6 5 5 7 8 5 3 5 4 4 5 4 4 5 4 3 4 3 3
4 7 10 13 9 5 12 8 3 10 19 20 22 26 24 23 22 19 19 21 22 22 21 20 21 11 6 5 5 7 7 8 9 9 10 7 4 6 6 6 6 5 4 5 4 4 4 4 3
2 4 5 6 10 11 10 3 5 6 13 20 22 23 23 25 25 22 25 22 22 20 21 19 20 22 15 4 7 5 6 7 8 6 9 11 6 6 6 7 7 6 6 6 6 7 5 4 3
2 15 18 14 5 5 6 17 17 13 18 20 21 20 20 21 22 22 20 19 20 17 18 21 20 21 18 18 9 4 4 6 6 9 8 11 9 9 7 6 7 7 7 8 4 4 4 4 3
6 5 6 9 11 5 7 12 13 13 19 18 19 18 18 20 19 19 19 19 19 19 21 18 17 21 19 16 13 11 4 5 5 6 7 9 11 9 8 7 6 5 5 6 5 5 4 5 4
9 3 6 4 14 6 7 9 12 15 17 17 16 15 15 16 20 18 19 18 19 19 20 20 19 21 20 17 13 14 13 4 5 6 6 7 10 11 9 7 6 6 5 5 6 3 4 3 3
4 4 5 5 9 7 17 13 12 14 16 14 14 15 16 17 18 17 19 18 18 19 18 18 17 19 18 13 12 10 10 11 5 6 6 10 7 8 8 7 7 9 7 5 4 5 3 3 5
8 8 5 3 6 6 12 13 12 10 13 14 13 14 14 15 14 15 17 17 18 18 21 21 22 21 16 15 15 13 11 11 12 7 11 11 9 10 11 8 7 8 9 9 9 4 6 2 3
10 5 6 6 5 2 13 13 11 10 11 12 12 12 13 14 15 16 17 18 19 19 19 20 21 20 16 13 11 11 12 7 10 12 9 11 13 12 11 11 9 10 7 8 10 8 4 3 8
4 7 3 5 7 4 13 8 10 8 10 10 10 8 10 13 14 16 17 17 18 20 21 20 20 19 18 18 11 12 10 9 10 13 12 11 13 12 12 12 10 11 10 10 11 11 12 6 7
3 5 4 6 3 2 2 1 4 6 9 10 9 8 7 9 10 11 14 15 16 16 16 18 20 19 17 19 16 17 12 13 11 12 11 15 13 13 13 14 12 13 11 11 12 11 12 8 9
6 15 6 4 2 4 7 6 2 2 6 6 6 7 7 7 8 9 10 11 10 12 14 14 17 18 19 18 17 14 15 12 12 12 17 15 14 8 11 13 12 13 11 14 14 13 14 11 9
12 6 6 5 4 4 4 5 4 1 2 1 2 5 7 10 8 7 6 7 8 9 11 14 16 16 18 18 18 18 19 18 16 16 13 13 12 13 7 7 7 11 12 12 13 16 17 15 9
14 8 5 8 7 6 2 4 6 5 3 2 6 7 8 8 7 8 8 8 9 11 10 12 14 16 17 17 18 17 17 18 16 17 15 18 13 12 11 8 8 8 9 10 11 12 15 15 13
5 4 6 4 2 6 11 4 4 6 5 6 4 5 5 6 6 7 8 7 6 10 9 10 12 14 16 17 17 16 15 11 12 13 13 12 13 12 16 10 8 9 8 10 10 8 10 10 11
7 6 2 5 1 4 4 1 4 4 2 3 6 5 5 5 5 6 7 6 6 7 7 7 9 11 13 14 14 16 15 15 15 18 14 12 16 13 15 16 11 8 6 6 6 6 8 7 8
5 1 5 5 3 5 6 5 6 5 4 4 4 6 6 5 6 7 6 6 5 6 6 7 7 9 10 12 12 13 15 15 15 16 18 16 16 18 17 16 12 10 8 9 10 9 8 11 9
5 2 4 5 4 5 3 7 6 8 6 2 4 5 6 7 7 7 7 6 6 6 7 9 7 9 9 11 12 14 15 15 14 14 16 18 16 16 16 15 14 9 7 7 9 10 10 13 12
3 3 4 7 6 2 3 9 4 7 6 5 3 7 7 8 6 6 6 7 6 7 7 9 8 9 8 11 9 14 15 15 15 15 16 18 18 15 16 16 14 11 8 8 9 9 9 12 12
Wind_Direction
324 312 267 35 48 67 258 261 127 32 26 323 332 26 109 336 20 137 231 133 129 142 144 145 144 142 137 134 133 130 130 128 127 125 123 121 122 120 116 107 101 102 109 100 108 95 88 88 87
314 317 37 77 84 69 281 107 87 99 171 350 353 4 80 87 84 87 97 136 132 141 144 146 145 142 138 136 135 133 134 132 131 128 125 124 124 123 123 120 121 119 110 112 105 105 99 92 89
284 180 74 109 141 194 122 31 70 22 67 60 15 17 43 359 63 123 124 133 129 138 143 142 142 142 140 139 137 138 137 137 135 134 132 130 127 128 127 121 108 106 110 111 109 105 98 92 86
2 12 2 95 226 280 40 351 53 37 15 1 70 50 75 5 21 321 117 129 128 139 140 143 141 142 142 140 140 141 141 141 140 138 136 133 126 123 121 116 115 116 115 110 106 102 99 95 89
52 55 49 141 263 58 15 14 43 51 55 3 354 350 64 3 18 31 73 127 132 137 133 145 139 142 144 143 144 144 145 145 145 143 140 134 132 127 126 125 125 121 116 111 108 106 103 98 91
6 69 63 209 232 12 18 356 56 51 31 358 34 63 58 347 16 341 41 117 133 128 140 147 140 140 145 145 147 146 147 149 149 148 142 140 138 136 129 124 123 126 122 118 113 111 107 103 93
37 343 314 9 35 23 356 326 37 28 23 3 327 56 117 13 339 343 2 102 116 126 132 139 145 151 158 149 150 154 150 152 152 152 152 143 142 139 138 133 130 129 126 123 120 114 108 99 79
14 29 9 35 32 39 353 3 356 30 47 355 40 26 354 306 344 356 4 91 109 122 136 138 139 155 164 158 150 156 158 155 153 149 143 134 147 147 142 138 136 135 135 132 128 122 115 109 103
316 44 74 18 3 331 9 19 358 69 52 42 14 20 47 25 8 21 21 47 85 87 120 134 146 166 162 155 170 164 160 158 151 142 138 139 147 155 152 151 146 140 138 138 138 137 137 144 154
67 101 112 43 39 357 16 13 11 26 33 19 27 24 32 28 13 12 17 32 21 29 138 149 168 174 167 183 170 177 174 164 154 152 160 161 162 168 170 160 154 150 151 150 153 166 178 171 238
126 96 161 23 21 12 29 20 351 27 32 13 30 38 32 32 26 29 23 22 9 347 302 164 161 186 171 179 157 150 138 157 164 162 171 181 175 182 173 155 153 150 157 165 162 189 181 193 129
96 110 111 19 33 26 52 24 2 44 27 17 49 41 37 33 28 28 21 14 12 7 7 318 188 182 201 173 180 169 164 165 177 180 186 192 189 183 166 162 168 170 171 178 191 185 183 166 110
64 153 142 162 183 157 128 116 304 33 31 36 42 41 35 33 30 25 22 19 11 12 3 359 359 318 215 178 200 187 181 178 182 183 190 191 195 187 164 172 174 178 181 186 191 186 172 151 150
319 110 83 173 113 48 126 88 119 357 41 47 47 44 37 34 23 21 20 15 11 4 4 358 360 0 332 256 213 205 192 188 185 188 192 192 186 186 175 173 187 191 188 198 187 176 170 167 160
51 83 58 22 24 95 124 45 41 54 59 47 45 44 37 32 27 25 16 15 8 4 1 6 359 1 0 352 308 239 215 187 196 190 189 192 196 186 183 182 193 198 196 184 166 151 135 140 156
21 45 73 27 8 325 66 65 45 48 61 52 43 37 33 32 30 22 17 13 11 7 7 4 4 2 357 352 345 319 234 225 206 204 184 199 192 187 193 190 195 191 170 158 153 155 157 166 168
10 52 69 16 18 349 62 99 53 46 54 49 41 40 36 30 29 21 18 14 10 10 7 6 8 4 355 353 347 343 316 240 232 224 198 189 210 190 191 198 194 169 162 167 161 165 157 163 162
4 33 34 38 349 21 91 90 62 52 57 50 42 36 34 30 23 15 18 15 10 9 10 9 10 7 2 356 348 345 347 337 279 234 221 219 200 213 189 193 193 176 170 169 163 174 166 154 165
73 64 4 339 12 12 99 92 76 64 62 51 43 36 33 29 18 18 15 13 14 11 8 8 7 7 6 2 355 346 342 319 325 252 228 213 213 206 210 190 191 186 182 184 180 164 174 150 135
73 73 352 296 314 5 116 90 85 68 64 55 45 38 30 22 18 17 15 15 13 9 7 6 8 5 7 2 354 339 323 320 307 295 243 237 220 210 217 207 192 195 180 177 175 178 149 153 174
65 84 349 274 325 51 121 116 95 82 75 63 54 46 37 28 17 13 13 14 12 10 6 2 4 3 3 358 350 346 339 344 348 328 335 266 234 220 211 210 195 190 192 187 188 187 181 183 201
316 59 318 280 52 170 64 192 131 99 68 49 37 27 20 25 22 16 13 12 10 8 5 2 1 358 358 358 358 356 350 340 328 321 307 326 243 234 221 209 196 199 195 192 191 187 192 170 187
268 309 268 208 160 63 331 72 237 99 57 24 24 24 18 11 14 12 9 7 5 3 3 360 0 359 357 356 359 355 349 339 331 327 325 320 319 260 235 224 207 204 204 201 191 194 197 201 189
319 347 39 56 86 39 265 109 261 196 144 354 19 16 13 6 2 360 357 3 1 359 0 358 358 357 355 355 353 354 351 339 338 338 334 329 321 311 263 263 226 208 215 197 197 196 203 202 200
1 34 359 4 10 216 71 41 246 168 134 35 30 15 10 2 352 353 349 358 2 360 355 356 354 351 351 351 350 347 347 344 338 336 332 328 321 324 303 258 220 227 195 231 197 202 207 195 198
328 82 131 202 307 292 343 262 263 173 181 68 62 43 10 347 350 344 338 343 352 355 344 350 348 344 347 346 343 342 342 341 336 332 326 321 323 317 326 283 268 263 235 222 214 209 220 217 194
316 38 142 99 129 33 259 305 325 178 83 18 32 18 340 334 343 336 329 333 342 342 335 331 332 335 340 339 339 338 337 337 336 333 327 327 324 321 320 315 263 252 231 212 205 200 197 200 202
81 266 45 7 46 306 291 287 243 190 259 353 333 309 306 322 322 315 317 320 322 327 319 323 319 321 323 330 335 331 331 332 330 331 332 326 324 322 322 323 291 257 225 208 199 204 189 192 184
356 27 42 116 133 175 291 268 218 195 212 207 317 317 307 301 293 305 305 308 318 335 334 325 317 327 322 328 327 329 329 329 327 328 327 328 320 322 318 312 305 268 242 222 214 212 193 197 187
91 171 109 115 285 246 181 272 218 234 191 174 267 291 298 285 305 322 310 306 325 326 329 324 311 323 312 322 317 323 322 325 326 325 325 327 322 317 317 312 303 279 245 225 214 207 200 200 186